Погода в Путилово

Россия / Санкт-Петербург и Ленинградская область     59°52′03″N   31°26′47″E
темп.,
°C
ветер,
м/с
пор.,
м/с
влажн.,
%
обл.,
%
осадки,
мм/ч
давл.,
гПа
погр.,
м
6 августа, пт
пт600:00+13св118099 0.0 101519
03:00+13св238096 0.0 1015109
06:00+13св298868 0.1 1014435
09:00+15св397853 0.1 1014779
12:00+17всв5859100 0.0 10141486
15:00+14св4881100 0.1 1014825
18:00+13св4984100 0.0 1013608
21:00+14всв4984100 0.0 1013606
7 августа, сб
сб700:00+12всв4119599 0.0 1013432
03:00+13всв41290100 0.0 1011512
06:00+13всв41293100 0.0 1010548
09:00+14всв51395100 0.4 1009599
12:00+15в51397100 2.1 1009741
15:00+15в51398100 10.5 1008682
18:00+16в51198100 2.2 1007749
21:00+16вюв399999 2.3 1007352
8 августа, вс
вс800:00+16вюв3899100 0.1 1007364
03:00+16юв2699100 0.3 1008268
06:00+14ю279849 0.1 1009203
09:00+16ююз368764 0.1 1010421
12:00+20ююв24674 0.0 1011880
15:00+20ю347278 0.9 1012808
18:00+21ююз236496 0.3 10121001
21:00+15ююз2287100 0.4 101420
9 августа, пн
пн900:00+15ююв2486100 0.0 101491
03:00+14ююв259693 0.0 1015110
06:00+14ююв279367 0.0 1014146
09:00+20ююв487296 0.0 1014432
12:00+24ююв585251 0.1 10131218
15:00+22ююз487413 0.3 1014818
18:00+23юз486583 0.2 10141029
21:00+19ююз398625 0.2 1016437
10 августа, вт
вт1000:00+16юз399813 0.0 1016295
03:00+15ююз259891 0.0 1017113
06:00+14ююз24960 0.0 1017100
09:00+20ююз247013 0.0 1018537
12:00+23юз345099 0.0 10181543
15:00+25ююз3443100 0.0 10172111
18:00+22ю236099 0.0 1017167
21:00+18юз117185 0.0 101713